Location: Bronschhofen
(47.4788°N, 9.0353°E)
Time: 21:20:54
(UTC+00:00)

Cosmos 839 Rocket - Pass Details

Date: 20 May 2022
Orbit: 968 x 2085 km, 65.9° (Epoch: 01 July)

Event Time Altitude Azimuth Distance (km) Brightness Sun altitude
Rises 00:47:18 0° 324° (NW) 3,671 7.5 -19.8°
Reaches altitude 10° 00:49:46 10° 327° (NNW) 2,742 6.8 -19.7°
Maximum altitude 00:56:01 69° 51° (NE) 1,127 4.5 -19.2°
Drops below altitude 10° 01:03:16 10° 135° (SE) 3,164 6.5 -18.7°
Sets 01:06:18 0° 138° (SE) 4,276 7.1 -18.5°
